Hauptseite
METAR-TAF:

METAR-TAF

Flughäfen :

Fliegerhorst Nörvenich

Nörvenich, Deutschland

Breite: 50-50N, Länge: 006-40E, Höhe: 118 m

Beobachtung

Neuester Wetterbericht von vor 3 Stunden und 9 Minuten, um 20:30 UTC
Wind 3 kt aus Süd
Temperatur 8°C
Luftfeuchtigkeit 76%
Luftdruck 1037 hPa
Sichtweite 10 km oder mehr
Aufgelockert bewölkt in der Höhe von 30000 ft

METAR: ETNN 252030Z 19003KT 9999 SCT300 08/04 Q1037 BLU+FCST CANCEL

Zeit: 01:39 (23:39 UTC)


TAF: fehlend

Wetterbeobachtungen und Prognosen von mehr als 4000 Flughäfen (METAR und TAF Bericht).

Die verfügbaren Stationen werden durch gelbe und rote Markierungen auf der Karte dargestellt.

Führen Sie die Maus auf sie, um den Namen der Station zu sehen.

Darauf klicken, um die Beobachtung von Wetterbeobachtungen und Prognosen zu sehen.

Um die Karte zu ändern : klicken Sie auf den grünen Tasten mit einem schwarzen Kreuz Zum Vergrößern, auf den grünen Button mit einem Gedankenstrich zu verkleinern, oder auf die grünen Pfeile für benachbarte Karten.


METAR-TAF: